Regional Weather Roundup
Issued by NWS

Home | Current Version | Previous Version | Text Only | Print | Product List | Glossary Off
Versions: 1 2 3 4 5 6 7 8 9 10 11 12 13 14 15 16 17 18 19 20 21 22 23 24 25 26 27 28 29 30 31 32 33 34 35 36 37 38 39 40 41 42 43 44 45 46 47 48 49 50

836
ASUS43 KFSD 280402
RWRSD

WEATHER ROUNDUP FOR SOUTH DAKOTA
NATIONAL WEATHER SERVICE SIOUX FALLS SD
1100 PM CDT FRI MAY 27 2016

NOTE: "FAIR" INDICATES FEW OR NO CLOUDS BELOW 12,000 FEET WITH NO
SIGNIFICANT WEATHER AND/OR OBSTRUCTIONS TO VISIBILITY.


SDZ001>005-009-010-012>017-280500-
NORTHWEST AND NORTH CENTRAL SOUTH DAKOTA

CITY           SKY/WX    TMP DP  RH WIND       PRES   REMARKS
BUFFALO          N/A     58  46  64 SE6       29.79R
FAITH            N/A     56  47  71 E3        29.85R
MOBRIDGE       CLOUDY    57  50  77 NE5       29.79R
$$

SDZ012>016-024>037-041>051-057-063-072>074-280500-
SOUTHWEST AND SOUTH CENTRAL SOUTH DAKOTA

CITY           SKY/WX    TMP DP  RH WIND       PRES   REMARKS
RAPID CTY ARPT CLOUDY    54  47  77 W5        29.86R
PIERRE         CLOUDY    60  54  80 NW3       29.81R
CUSTER         CLOUDY    46  43  89 CALM      29.93R
PHILIP         CLOUDY    53  50  89 CALM      29.84R
PINE RIDGE     PTCLDY    49  45  86 CALM      29.88R
WINNER         FAIR      58  54  86 NW6       29.82R
$$

SDZ004>011-016>023-039-040-280500-
NORTHEAST SOUTH DAKOTA

CITY           SKY/WX    TMP DP  RH WIND       PRES   REMARKS
ABERDEEN       CLOUDY    61  57  87 CALM      29.78R
WATERTOWN      MOCLDY    59  55  87 N5        29.78S
BROOKINGS      PTCLDY    62  57  83 N7        29.77R
SISSETON         N/A     58  57  97 N3        29.78R
$$

SDZ017-020-022-023-036>040-048>070-280500-
SOUTHEAST SOUTH DAKOTA

CITY           SKY/WX    TMP DP  RH WIND       PRES   REMARKS
SIOUX FALLS    MOCLDY    62  56  80 CALM      29.75R
HURON          PTCLDY    60  58  92 N3        29.78R
MITCHELL       CLOUDY    64  61  90 N5        29.77R
YANKTON        CLOUDY    66  59  77 NW9       29.72S
$$

ABBREVIATIONS USED IN REMARKS
   TC - TEMPERATURE IN CELSIUS
  WCI - WIND CHILL INDEX
   HX - HEAT INDEX
  VSB - VISIBILITY





USA.gov is the U.S. government's official web portal to all federal, state and local government web resources and services.